Location: BGSU Observatory
(41.3799°N, 83.6397°W)
Time: 14:48:14
(UTC-05:00)

Tiangong 2 - Visible Passes

Search period start: 16 December 2018 00:00
Search period end: 26 December 2018 00:00
Orbit: 383 x 391 km, 42.8° (Epoch: 16 December)

Date Brightness Start Highest point End Pass type
(mag) Time Alt. Az. Time Alt. Az. Time Alt. Az.
18 Dec 3.3 19:01:47 10° SSW 19:03:12 18° S 19:03:12 18° S visible
19 Dec 3.5 18:04:15 10° S 18:05:39 12° SE 18:07:03 10° ESE visible
19 Dec 4.1 19:38:53 10° WSW 19:39:35 15° SW 19:39:35 15° SW visible
20 Dec 2.0 18:40:21 10° SW 18:43:16 35° SSE 18:43:38 33° SE visible
21 Dec 2.9 17:42:06 10° SSW 17:44:36 22° SSE 17:47:07 10° E visible
21 Dec 2.7 19:17:58 10° WSW 19:19:55 34° WSW 19:19:55 34° WSW visible
22 Dec 1.4 18:19:13 10° WSW 18:22:20 57° SSE 18:23:52 26° E visible
22 Dec 4.7 19:55:59 10° W 19:56:08 11° W 19:56:08 11° W visible
23 Dec 1.2 18:57:07 10° W 19:00:05 70° NW 19:00:05 70° NW visible
24 Dec 1.0 17:58:15 10° WSW 18:01:26 86° SSE 18:04:00 15° ENE visible
24 Dec 3.8 19:35:10 10° W 19:36:16 20° WNW 19:36:16 20° WNW visible
25 Dec 1.1 18:36:16 10° W 18:39:26 65° N 18:40:12 45° ENE visible
